Location: Granada
(37.1830°N, 3.6000°W)
Time: 13:22:27
(UTC+02:00)

Iridium 70 - Visible Passes

Search period start: 06 July 2015 00:00
Search period end: 16 July 2015 00:00
Orbit: 776 x 779 km, 86.4° (Epoch: 05 July)

Date Brightness Start Highest point End Pass type
(mag) Time Alt. Az. Time Alt. Az. Time Alt. Az.
06 Jul 8.2 04:31:42 10° NE 04:34:22 14° ENE 04:37:18 10° ESE visible
06 Jul 5.7 06:10:30 10° N 06:15:36 57° W 06:20:41 10° SSW visible
07 Jul 5.7 05:36:54 10° N 05:42:07 76° E 05:47:20 10° S visible
08 Jul 6.8 05:03:39 10° NNE 05:08:30 39° E 05:13:23 10° SSE visible
09 Jul 7.8 04:30:53 10° NNE 04:34:43 21° ENE 04:38:43 10° SE visible
09 Jul 6.1 06:10:50 10° NNW 06:15:38 38° W 06:20:24 10° SSW visible
10 Jul 8.3 03:59:34 10° ENE 04:00:46 11° ENE 04:02:19 10° E visible
10 Jul 5.5 05:37:00 10° N 05:42:13 74° W 05:47:24 10° S visible
11 Jul 6.0 05:03:33 10° N 05:08:41 58° E 05:13:39 11° SSE visible
12 Jul 7.1 04:30:27 10° NNE 04:35:00 31° E 04:39:37 10° SE visible
12 Jul 6.6 06:11:20 10° NNW 06:15:39 26° W 06:19:52 10° SW visible
13 Jul 8.0 03:58:00 10° NE 04:01:09 17° ENE 04:04:32 10° ESE visible
13 Jul 5.8 05:37:15 10° NNW 05:42:17 49° W 05:46:08 17° SSW visible
14 Jul 5.5 05:03:35 10° N 05:08:49 86° E 05:12:13 22° S visible
15 Jul 6.4 04:30:15 10° N 04:35:14 45° E 04:38:19 22° SE visible
15 Jul 7.1 06:12:05 10° NW 06:15:38 18° W 06:18:46 11° WSW visible
